Wind_Speed
13 13 14 14 14 15 15 16 15 14 13 13 12 12 12 12 12 12 12 12 13 13 14 14 14 14 14 14 13 12 11 11 10 10 9 9 9 9 9 10 10 10
15 14 14 14 15 15 16 16 15 15 14 14 14 14 13 13 13 12 12 13 14 14 15 15 15 15 15 15 14 13 13 12 11 10 10 10 9 9 9 9 10 10
16 16 16 16 17 17 17 17 16 16 16 16 15 15 14 14 13 13 13 13 14 14 15 16 16 16 16 16 15 14 14 13 13 12 12 11 10 10 10 10 10 10
17 18 18 18 18 18 18 17 17 17 17 17 16 15 15 15 14 14 14 13 14 14 15 16 17 17 17 16 16 15 14 14 14 14 13 12 12 11 10 10 11 11
19 19 20 20 19 19 19 18 18 18 17 17 16 15 15 15 14 14 14 14 14 14 15 15 16 16 17 17 16 16 15 15 15 15 14 14 13 12 11 11 11 11
21 20 20 20 20 20 20 20 19 19 18 17 17 16 16 15 15 15 15 14 14 14 14 14 15 15 16 16 17 16 16 15 15 15 14 14 14 14 13 12 11 11
23 22 22 21 21 20 21 21 20 20 19 18 17 17 16 16 16 15 15 15 14 14 14 14 14 14 15 15 16 16 16 15 15 15 14 15 15 15 14 13 12 11
25 24 22 22 22 22 21 21 21 21 20 19 18 18 17 17 17 16 16 16 15 14 14 14 14 14 15 15 15 16 16 15 15 15 15 15 15 15 15 14 13 12
26 26 24 23 22 23 23 22 22 22 21 20 20 19 18 18 17 17 17 16 16 15 14 14 14 14 15 15 15 16 15 15 15 15 15 15 15 15 15 14 13 12
27 27 26 24 23 24 24 24 24 23 22 21 21 20 20 19 18 17 17 17 17 16 15 15 15 15 15 15 15 16 15 15 15 15 16 16 15 15 15 14 13 13
28 27 27 26 26 25 26 25 25 24 23 23 23 22 21 21 19 18 18 18 17 17 16 16 16 15 15 15 15 16 15 15 15 15 16 16 16 16 15 14 13 13
30 28 28 28 28 28 28 27 26 26 25 25 24 23 23 22 20 19 19 19 18 18 17 17 16 16 15 15 16 16 16 16 16 15 16 16 17 17 16 15 14 13
31 30 29 29 29 30 30 30 28 27 26 26 25 25 24 22 21 21 21 21 20 19 18 17 17 16 16 15 16 17 17 16 16 16 16 16 17 17 17 17 15 14
32 32 32 31 31 31 32 32 31 29 28 27 26 26 24 24 23 23 23 22 21 20 19 18 17 17 16 16 17 18 18 18 17 17 16 16 16 17 17 17 17 16
32 33 33 33 33 33 33 32 32 32 31 29 28 27 26 25 25 24 24 23 22 22 21 19 18 17 17 17 18 19 19 19 19 18 17 17 17 17 17 17 16 16
32 33 34 34 34 34 34 34 33 33 32 31 30 29 28 27 26 25 24 23 23 23 22 20 19 19 19 19 19 20 20 20 20 19 19 18 17 17 17 17 16 16
31 32 33 34 35 35 35 35 35 34 34 33 33 32 31 30 28 27 25 24 24 24 23 21 21 21 21 20 20 20 21 22 21 21 20 19 18 18 18 17 17 16
31 31 32 32 34 35 36 36 36 35 34 34 33 33 33 32 31 29 28 27 26 25 24 22 22 23 24 23 22 21 22 23 23 23 22 21 20 20 19 19 18 17
32 32 31 31 32 33 35 36 36 35 34 34 34 34 34 33 32 31 31 29 28 27 25 24 23 24 25 25 24 23 23 24 24 25 25 24 23 22 21 20 19 18
34 33 32 31 31 32 32 33 34 34 34 34 34 33 33 32 32 32 31 31 30 29 28 27 26 26 26 26 26 26 25 25 25 26 27 26 25 24 23 22 21 20
36 34 33 32 31 31 30 31 31 32 33 33 33 33 33 32 33 32 32 31 30 30 30 28 28 27 28 27 28 28 28 27 27 27 28 28 28 27 26 25 24 23
39 36 34 33 32 30 29 29 30 31 32 33 33 33 33 33 33 32 32 31 31 30 30 29 29 29 29 29 29 30 30 30 28 28 28 28 30 30 29 28 27 26
41 39 37 35 33 31 29 29 29 30 31 31 32 32 32 32 32 32 32 31 30 30 29 28 29 30 30 30 30 31 31 30 29 29 29 28 29 31 31 31 30 28
44 41 40 38 36 33 30 29 29 29 30 30 30 30 31 31 31 31 30 30 29 29 28 28 29 30 30 30 31 31 31 30 29 29 29 28 29 29 30 31 32 31
46 44 42 41 39 36 33 31 29 29 29 29 29 29 29 29 29 29 28 28 28 28 28 28 29 30 30 30 31 31 30 30 29 27 27 27 28 29 29 29 30 32
49 47 45 44 42 39 36 34 32 31 30 28 28 28 28 28 28 28 27 27 27 28 28 28 28 30 30 30 30 30 29 29 28 26 25 26 27 28 28 28 29 30
Wind_Direction
190 186 183 183 183 187 191 192 193 194 195 196 197 199 200 199 199 199 199 196 194 192 191 191 192 193 194 193 189 186 186 185 184 181 179 178 180 178 176 177 177 178
191 189 187 185 183 188 193 193 193 194 194 195 199 203 204 204 205 206 205 203 199 199 198 197 197 197 199 197 194 191 190 190 191 188 186 186 185 183 182 182 181 182
193 190 189 189 188 190 193 193 191 192 193 195 198 203 205 206 208 209 210 208 204 203 202 202 202 201 202 200 197 195 193 193 194 195 194 192 189 188 188 187 185 184
195 192 191 193 193 192 191 191 191 190 191 194 197 199 202 205 207 209 212 211 208 207 206 206 206 205 205 204 201 199 198 197 196 198 198 197 195 195 194 194 193 191
199 195 193 194 196 194 192 191 192 191 191 192 194 196 199 203 205 207 210 211 209 208 208 209 209 208 208 207 205 204 203 202 200 200 201 200 201 202 201 201 201 199
203 199 197 196 197 197 195 193 192 192 192 193 194 196 199 203 207 209 211 211 210 207 207 209 211 212 211 211 209 208 208 207 204 203 202 203 205 207 207 207 207 205
209 205 201 198 198 199 200 198 196 195 195 196 197 199 201 205 210 213 214 214 212 208 206 207 210 214 215 214 212 212 211 210 208 206 205 206 208 209 212 213 211 208
215 213 207 202 199 200 202 202 201 200 199 198 200 202 203 206 209 212 214 216 215 211 207 207 209 213 216 216 216 215 214 212 212 211 210 210 211 212 214 217 216 213
216 217 214 209 204 203 204 204 204 204 202 201 202 204 205 207 208 210 212 214 216 214 211 209 210 212 215 217 217 217 216 215 215 215 215 215 215 216 217 218 219 218
217 217 217 215 212 209 208 207 206 206 204 205 205 205 206 208 208 210 212 214 216 216 214 212 212 213 214 216 217 217 217 217 217 219 220 219 219 221 223 222 220 220
217 217 217 217 217 217 215 213 211 208 207 207 207 207 208 208 207 208 211 214 216 218 218 217 216 216 216 216 216 217 217 218 219 221 222 223 222 223 225 226 223 219
216 217 218 218 218 219 221 220 217 214 212 210 209 210 210 210 208 208 211 214 218 220 222 222 221 220 220 218 216 216 217 218 219 221 223 223 223 223 224 224 223 219
215 216 218 219 219 220 222 223 223 221 218 216 214 213 213 212 210 209 211 215 218 220 224 226 227 226 225 222 218 217 216 217 218 220 221 221 221 222 223 222 221 219
215 216 217 218 220 221 222 223 224 225 224 222 220 218 217 216 214 213 214 216 218 220 223 227 229 231 230 227 222 219 218 218 219 219 220 221 221 222 224 224 223 220
215 216 217 218 220 222 223 224 225 226 227 227 226 224 222 221 220 218 218 219 220 221 223 226 228 232 234 232 228 224 221 220 220 221 221 222 222 223 225 226 226 224
216 216 217 219 220 222 224 225 226 226 228 228 229 229 228 227 226 224 223 223 224 225 225 225 227 230 233 234 232 229 227 225 224 223 223 223 224 225 226 226 227 227
219 219 219 220 221 222 224 225 227 228 228 229 230 230 231 231 231 230 228 227 228 230 230 227 227 230 233 234 234 233 231 229 227 227 227 227 226 226 227 228 229 230
221 221 221 222 222 224 225 226 227 229 230 231 232 232 232 233 234 234 234 233 233 234 234 232 229 231 234 236 235 234 233 231 230 230 229 230 229 229 229 229 230 232
222 221 221 222 223 225 227 228 229 230 231 233 234 235 235 235 236 236 237 237 238 238 238 236 234 234 237 238 237 236 235 232 231 230 230 230 230 231 232 231 231 232
221 221 221 221 223 225 227 229 230 232 233 234 235 237 238 238 238 238 238 238 239 239 239 239 238 238 239 240 240 239 238 236 233 232 231 230 230 231 232 233 233 233
222 221 222 222 223 224 226 228 230 231 233 235 236 237 238 238 239 239 239 238 238 239 239 239 240 241 241 242 242 242 241 240 237 235 233 231 230 230 231 233 234 234
225 223 224 224 225 225 226 227 229 230 232 234 235 236 237 238 240 240 240 240 240 239 239 239 240 241 242 242 243 244 244 243 242 240 238 234 232 231 230 232 234 234
227 226 225 226 227 227 227 229 229 230 232 234 235 236 238 239 241 242 243 243 243 243 242 240 240 241 241 242 244 245 246 246 245 244 243 241 238 235 233 232 233 234
228 227 227 227 226 226 227 229 231 232 233 234 235 236 238 239 241 243 244 246 247 246 245 243 242 242 243 243 245 247 248 248 248 247 247 247 246 243 240 237 236 235
228 227 228 229 227 226 225 226 229 232 233 234 235 236 237 238 240 241 243 244 245 246 245 244 244 245 246 246 247 249 251 252 252 251 251 251 250 250 248 245 242 240
229 227 228 230 229 227 225 224 225 228 231 232 233 234 235 235 237 238 240 241 242 243 244 244 244 246 248 249 250 251 253 255 256 256 256 255 253 252 251 251 249 247
Height
5941 5941 5942 5943 5944 5946 5947 5948 5949 5950 5951 5952 5953 5954 5954 5955 5955 5956 5956 5957 5957 5958 5958 5959 5959 5960 5960 5961 5962 5962 5962 5963 5964 5965 5965 5966 5967 5967 5967 5968 5969 5969
5940 5941 5942 5943 5944 5945 5946 5947 5949 5950 5951 5952 5953 5953 5954 5955 5955 5956 5956 5957 5957 5958 5958 5959 5959 5960 5960 5961 5961 5961 5962 5963 5964 5965 5965 5966 5967 5967 5967 5968 5969 5969
5939 5940 5941 5942 5943 5944 5945 5947 5948 5949 5951 5951 5952 5953 5954 5954 5955 5956 5956 5957 5957 5958 5958 5959 5959 5959 5960 5960 5961 5961 5962 5962 5963 5964 5965 5966 5967 5967 5968 5968 5968 5969
5938 5939 5940 5941 5942 5943 5944 5946 5947 5949 5950 5951 5952 5953 5953 5954 5955 5955 5956 5957 5957 5958 5958 5959 5959 5959 5960 5960 5960 5961 5961 5962 5962 5963 5964 5966 5966 5967 5968 5968 5968 5969
5936 5937 5939 5940 5941 5942 5944 5945 5946 5947 5949 5950 5951 5952 5953 5954 5954 5955 5956 5956 5957 5957 5958 5959 5959 5959 5960 5960 5960 5960 5961 5961 5962 5963 5964 5965 5966 5966 5967 5968 5968 5969
5935 5936 5937 5939 5940 5942 5943 5943 5944 5946 5947 5949 5950 5951 5952 5953 5954 5955 5955 5956 5956 5957 5957 5958 5958 5959 5959 5959 5960 5960 5960 5961 5961 5962 5963 5964 5965 5966 5967 5967 5968 5968
5933 5934 5936 5937 5939 5940 5941 5942 5943 5944 5946 5947 5948 5950 5951 5952 5953 5954 5955 5956 5956 5956 5956 5957 5957 5958 5958 5959 5959 5960 5960 5960 5961 5961 5962 5963 5964 5965 5966 5966 5967 5968
5931 5933 5934 5936 5937 5939 5940 5941 5942 5943 5944 5945 5947 5948 5949 5950 5952 5953 5954 5955 5955 5955 5956 5956 5956 5957 5957 5958 5958 5959 5959 5960 5960 5961 5962 5962 5963 5964 5965 5966 5966 5967
5929 5931 5933 5935 5936 5937 5938 5939 5940 5941 5942 5944 5945 5946 5947 5949 5950 5951 5952 5953 5954 5954 5954 5955 5955 5956 5956 5957 5958 5958 5959 5959 5960 5961 5961 5962 5963 5963 5964 5965 5965 5966
5927 5929 5931 5933 5935 5936 5937 5937 5938 5939 5941 5942 5943 5945 5946 5947 5948 5950 5950 5951 5952 5953 5953 5953 5954 5954 5955 5956 5956 5957 5958 5959 5959 5960 5961 5962 5962 5963 5963 5964 5964 5965
5924 5926 5929 5931 5933 5934 5935 5936 5936 5938 5939 5940 5941 5943 5944 5945 5947 5948 5949 5949 5950 5951 5951 5952 5952 5953 5953 5954 5955 5956 5957 5958 5959 5960 5960 5961 5962 5962 5963 5963 5963 5964
5922 5924 5926 5928 5930 5931 5932 5933 5935 5936 5937 5938 5939 5941 5942 5943 5945 5946 5947 5948 5948 5949 5950 5950 5951 5952 5952 5953 5954 5955 5956 5957 5958 5959 5959 5960 5961 5961 5962 5962 5962 5963
5919 5921 5923 5925 5926 5928 5929 5931 5932 5934 5935 5936 5937 5938 5940 5941 5943 5944 5945 5945 5946 5948 5948 5949 5950 5951 5951 5952 5953 5954 5955 5956 5957 5957 5958 5959 5959 5960 5961 5961 5961 5962
5916 5918 5920 5922 5923 5924 5926 5928 5929 5931 5932 5934 5935 5936 5938 5939 5940 5941 5942 5943 5945 5946 5947 5948 5949 5950 5951 5951 5952 5953 5954 5954 5955 5956 5957 5957 5958 5959 5960 5960 5960 5961
5912 5914 5916 5918 5920 5922 5923 5925 5927 5928 5929 5931 5933 5934 5935 5937 5938 5939 5940 5941 5943 5944 5945 5946 5948 5949 5949 5950 5951 5952 5952 5953 5954 5954 5955 5956 5957 5957 5958 5959 5960 5960
5910 5911 5913 5915 5917 5919 5921 5922 5924 5925 5927 5928 5930 5931 5933 5934 5935 5937 5938 5940 5941 5942 5943 5945 5946 5947 5948 5948 5949 5950 5951 5952 5952 5953 5954 5954 5955 5956 5957 5958 5958 5959
5908 5909 5911 5912 5914 5916 5917 5919 5921 5922 5924 5926 5927 5929 5930 5932 5933 5935 5937 5938 5939 5940 5941 5943 5944 5945 5945 5946 5947 5948 5949 5950 5951 5952 5952 5953 5954 5955 5956 5956 5957 5958
5907 5908 5909 5910 5912 5913 5915 5916 5918 5920 5922 5923 5925 5926 5928 5929 5931 5933 5934 5935 5937 5938 5940 5941 5943 5943 5943 5944 5945 5946 5947 5948 5949 5950 5951 5952 5953 5953 5954 5955 5956 5957
5905 5906 5907 5908 5909 5910 5912 5913 5915 5917 5919 5921 5922 5924 5925 5927 5929 5930 5932 5933 5935 5936 5938 5939 5941 5941 5942 5942 5943 5944 5945 5946 5947 5948 5949 5950 5951 5952 5952 5953 5954 5955
5901 5903 5904 5905 5906 5907 5909 5911 5913 5915 5917 5918 5920 5921 5923 5925 5926 5928 5929 5931 5932 5934 5935 5937 5938 5939 5940 5940 5941 5942 5942 5943 5944 5945 5947 5948 5949 5950 5951 5952 5952 5953
5899 5900 5902 5903 5903 5905 5907 5908 5910 5912 5914 5915 5917 5919 5920 5922 5923 5925 5926 5928 5930 5931 5933 5934 5936 5937 5937 5938 5939 5939 5940 5941 5942 5943 5944 5945 5946 5947 5948 5949 5950 5951
5896 5898 5899 5900 5901 5903 5905 5906 5908 5909 5911 5912 5914 5915 5917 5919 5920 5922 5923 5925 5927 5928 5930 5932 5933 5934 5935 5935 5936 5936 5937 5938 5939 5940 5941 5942 5944 5945 5946 5947 5948 5949
5893 5895 5897 5898 5899 5901 5903 5904 5906 5907 5908 5909 5911 5913 5915 5916 5918 5919 5921 5922 5924 5926 5928 5929 5930 5931 5932 5932 5933 5933 5934 5935 5937 5938 5939 5940 5941 5941 5943 5944 5945 5947
5889 5892 5894 5895 5896 5899 5900 5902 5903 5904 5906 5907 5909 5910 5912 5913 5915 5916 5918 5920 5922 5923 5925 5926 5927 5927 5928 5929 5930 5930 5931 5933 5934 5935 5937 5938 5938 5939 5940 5941 5942 5943
5885 5888 5890 5891 5893 5895 5897 5898 5900 5901 5903 5905 5906 5908 5909 5911 5912 5914 5915 5917 5919 5920 5921 5923 5924 5924 5925 5926 5927 5927 5929 5930 5932 5933 5935 5936 5936 5936 5937 5938 5939 5940
5881 5883 5885 5887 5889 5891 5892 5894 5895 5897 5899 5901 5903 5905 5906 5907 5909 5910 5912 5913 5915 5916 5918 5920 5921 5921 5921 5923 5924 5925 5926 5928 5929 5931 5933 5933 5933 5933 5934 5935 5936 5937